Location: Lødingen
(68.4072°N, 15.9919°E)
Time: 12:10:51
(UTC+01:00)

YUBILEINY - Visible Passes

Search period start: 30 November 2023 00:00
Search period end: 10 December 2023 00:00
Orbit: 1478 x 1508 km, 82.5° (Epoch: 30 November)

Date Brightness Start Highest point End Pass type
(mag) Time Alt. Az. Time Alt. Az. Time Alt. Az.
30 Nov ? 01:24:21 10° NNW 01:27:27 12° NW 01:30:33 10° NW visible
30 Nov ? 05:11:21 10° NNE 05:12:19 10° NNE 05:13:17 10° NNE visible
30 Nov ? 06:59:36 10° E 07:05:33 21° NE 07:11:28 10° NNE visible
30 Nov ? 14:45:40 10° WNW 14:53:33 34° N 15:01:23 10° NE visible
30 Nov ? 16:45:05 10° NW 16:53:07 37° NNE 16:58:10 21° ENE visible
30 Nov ? 18:43:14 10° NNW 18:51:57 58° NE 18:54:05 48° E visible
30 Nov ? 20:40:32 10° NNW 20:49:18 74° W 20:49:59 71° SW visible
30 Nov ? 22:37:28 10° NNW 22:45:02 34° WNW 22:45:54 34° W visible
01 Dec ? 00:34:25 10° NNW 00:39:10 16° NW 00:41:48 14° WNW visible
01 Dec ? 06:12:27 10° ENE 06:17:05 16° NE 06:21:44 10° NNE visible
01 Dec ? 08:03:39 10° SE 08:11:12 34° ENE 08:18:43 10° NNE visible
01 Dec ? 15:54:39 10° NW 16:02:30 34° N 16:09:05 14° ENE visible
01 Dec ? 17:53:15 10° NNW 18:01:43 47° NE 18:05:00 34° E visible
01 Dec ? 19:50:48 10° NNW 19:59:40 86° ENE 20:00:54 70° SSE visible
01 Dec ? 21:47:48 10° NNW 21:56:00 46° W 21:56:49 45° W visible
01 Dec ? 23:44:42 10° NNW 23:50:43 21° NW 23:52:44 20° WNW visible
02 Dec ? 01:42:41 10° NNW 01:43:58 10° NNW 01:45:15 10° NW visible
02 Dec ? 05:25:53 10° NE 05:28:50 12° NE 05:31:46 10° NNE visible
02 Dec ? 07:15:43 10° ESE 07:22:24 25° ENE 07:29:04 10° NNE visible
02 Dec ? 15:04:01 10° WNW 15:11:50 33° N 15:19:36 10° ENE visible
02 Dec ? 17:03:07 10° NW 17:11:19 40° NNE 17:15:56 24° E visible
02 Dec ? 19:00:59 10° NNW 19:09:48 68° ENE 19:11:51 54° ESE visible
02 Dec ? 20:58:09 10° NNW 21:06:44 61° W 21:07:46 58° WSW visible
02 Dec ? 22:55:02 10° NNW 23:02:03 28° WNW 23:03:41 27° W visible
03 Dec ? 00:52:10 10° NNW 00:55:48 13° NW 00:59:26 10° WNW visible
03 Dec ? 06:28:13 10° E 06:33:49 19° NE 06:39:23 10° NNE visible
03 Dec ? 08:20:19 10° SE 08:28:18 41° E 08:36:17 10° NNE visible
03 Dec ? 16:12:48 10° NW 16:20:46 36° NNE 16:26:54 16° ENE visible
03 Dec ? 18:11:05 10° NNW 18:19:43 54° NE 18:22:49 39° E visible
03 Dec ? 20:08:27 10° NNW 20:17:15 80° WSW 20:18:44 65° S visible
03 Dec ? 22:05:23 10° NNW 22:13:10 38° WNW 22:14:39 35° W visible
04 Dec ? 00:02:20 10° NNW 00:07:28 17° NW 00:10:34 14° WNW visible
04 Dec ? 05:41:14 10° ENE 05:45:25 15° NE 05:49:36 10° NNE visible
04 Dec ? 07:32:03 10° SE 07:39:22 31° ENE 07:46:38 10° NNE visible
04 Dec ? 15:22:18 10° WNW 15:30:08 34° N 15:37:53 10° ENE visible
04 Dec ? 17:21:04 10° NW 17:29:27 45° NE 17:33:48 27° E visible
04 Dec ? 19:18:42 10° NNW 19:27:33 80° ENE 19:29:44 56° SE visible
04 Dec ? 21:15:44 10° NNW 21:24:04 50° W 21:25:39 46° WSW visible
04 Dec ? 23:12:37 10° NNW 23:18:57 23° WNW 23:21:34 20° W visible
05 Dec ? 01:10:11 10° NNW 01:12:21 11° NNW 01:14:32 10° NW visible
05 Dec ? 04:54:57 10° NE 04:57:12 11° NNE 04:59:28 10° NNE visible
05 Dec ? 06:44:15 10° ESE 06:50:37 23° ENE 06:56:59 10° NNE visible
05 Dec ? 08:37:11 10° SSE 08:45:32 50° E 08:53:51 10° NNE visible
05 Dec ? 14:31:39 10° WNW 14:39:28 34° N 14:47:15 10° ENE visible
05 Dec ? 16:30:53 10° NW 16:38:59 38° NNE 16:44:51 18° E visible
05 Dec ? 18:28:51 10° NNW 18:37:36 64° NE 18:40:46 42° ESE visible
05 Dec ? 20:26:04 10° NNW 20:34:44 67° W 20:36:41 54° SSW visible
05 Dec ? 22:22:58 10° NNW 22:30:13 31° WNW 22:32:37 27° W visible
06 Dec ? 00:20:01 10° NNW 00:24:08 14° NW 00:28:15 10° WNW visible
06 Dec ? 05:56:54 10° E 06:02:06 18° NE 06:07:16 10° NNE visible
06 Dec ? 07:48:36 10° SE 07:56:26 38° ENE 08:04:12 10° NNE visible
06 Dec ? 15:40:31 10° NW 15:48:25 35° NNE 15:55:55 11° ENE visible
06 Dec ? 17:38:55 10° NNW 17:47:29 51° NE 17:51:51 29° ESE visible
06 Dec ? 19:36:21 10° NNW 19:45:11 86° WSW 19:47:47 52° S visible
06 Dec ? 21:33:20 10° NNW 21:41:16 41° W 21:43:41 35° WSW visible
06 Dec ? 23:30:14 10° NNW 23:35:45 19° NW 23:39:37 14° W visible
07 Dec ? 05:10:05 10° ENE 05:13:45 13° NE 05:17:26 10° NNE visible
07 Dec ? 07:00:29 10° ESE 07:07:32 28° ENE 07:14:33 10° NNE visible
07 Dec ? 08:54:15 10° S 09:02:51 62° E 09:11:27 10° NNE visible
07 Dec ? 14:49:57 10° WNW 14:57:45 33° N 15:05:31 10° ENE visible
07 Dec ? 16:48:51 10° NW 16:57:09 42° NNE 17:02:59 20° E visible
07 Dec ? 18:46:34 10° NNW 18:55:25 75° ENE 18:58:54 42° SE visible
07 Dec ? 20:43:40 10° NNW 20:52:06 55° W 20:54:50 41° SW visible
07 Dec ? 22:40:33 10° NNW 22:47:10 25° WNW 22:50:46 19° W visible
08 Dec ? 00:37:53 10° NNW 00:40:43 12° NNW 00:43:34 10° NW visible
08 Dec ? 04:24:15 10° NE 04:25:35 10° NNE 04:26:55 10° NNE visible
08 Dec ? 06:12:49 10° E 06:18:51 21° ENE 06:24:53 10° NNE visible
08 Dec ? 08:05:23 10° SSE 08:13:36 46° E 08:21:46 10° NNE visible
08 Dec ? 15:58:37 10° NW 16:06:39 37° NNE 16:14:10 12° E visible
08 Dec ? 17:56:43 10° NNW 18:05:25 59° NE 18:10:06 30° ESE visible
08 Dec ? 19:53:58 10° NNW 20:02:43 72° W 20:06:02 42° S visible
08 Dec ? 21:50:54 10° NNW 21:58:23 33° WNW 22:01:59 25° WSW visible
08 Dec ? 23:47:54 10° NNW 23:52:27 16° NW 23:57:01 10° WNW visible
09 Dec ? 05:25:37 10° E 05:30:23 16° NE 05:35:09 10° NNE visible
09 Dec ? 07:16:58 10° SE 07:24:33 35° ENE 07:32:07 10° NNE visible
09 Dec ? 15:08:11 10° NW 15:16:02 34° N 15:23:50 10° ENE visible
09 Dec ? 17:06:44 10° NNW 17:15:13 48° NE 17:21:22 19° ESE visible
09 Dec ? 19:04:15 10° NNW 19:13:05 88° ENE 19:17:20 36° SSE visible
09 Dec ? 21:01:15 10° NNW 21:09:21 45° W 21:13:16 29° SW visible
09 Dec ? 22:58:09 10° NNW 23:04:01 21° NW 23:09:13 12° W visible
